User: anonymous
Location: Roanoke
(37.2710°N, 79.9420°W)
Time: 23:11:34
(UTC-04:00)
Language:

FENGYUN 3A - Orbit

View from above orbital plane
View from above orbital plane
View from above satellite
View from above satellite

Ground track
Ground track

The orbit data is extracted from the following two-line orbital elements,

1 32958U 08026A   14109.76246600  .00000172  00000-0  10193-3 0  9086
2 32958 098.5613 170.5543 0010229 029.9338 330.2415 14.19438055305550
Epoch (UTC): 19 April 2014 18:17:57
Eccentricity: 0.0010229
inclination: 98.5613°
perigee height: 820 km
apogee height: 834 km
right ascension of ascending node: 170.5543°
argument of perigee: 29.9338°
revolutions per day: 14.19438055
mean anomaly at epoch: 330.2415°
orbit number at epoch: 30555

The dashed part of the orbit path shows where the satellite is in the earth's shadow,  

DLR